Weather History for PHBK - January, 2013

Change the Weather History Date:

Wednesday, January 30, 2013

  Actual Average Record
Temperature  
Mean Temperature 72 °F -  
Max Temperature 79 °F 79 °F 85 °F (1978)
Min Temperature 64 °F 61 °F 56 °F (1977)
Cooling Degree Days 6    
Growing Degree Days 22 (Base 50)    
Moisture  
Dew Point 64 °F    
Average Humidity 76    
Maximum Humidity 93    
Minimum Humidity 60    
Precipitation  
Precipitation 0.00 in - - ()
Sea Level Pressure  
Sea Level Pressure 30.04 in    
Wind  
Wind Speed 4 mph (ESE)    
Max Wind Speed 15 mph    
Max Gust Speed 16 mph    
Visibility 10 miles    
Events      
Averages and records for this station are not official NWS values.
T = Trace of Precipitation, MM = Missing Value Source: NWS Daily Summary

Daily Weather History Graph

Daily Weather History Graph

Search for Another Location

Airport or City:

Trip Planner

Search our weather history database for the weather conditions in past years. The results will help you decide how hot, cold, wet, or windy it might be!

Date:

Astronomy

Jan. 30, 2013 Rise Set
Actual Time 7:17 AM HST 6:27 PM HST
Civil Twilight 6:54 AM HST 6:50 PM HST
Nautical Twilight 6:27 AM HST 7:17 PM HST
Astronomical Twilight 6:01 AM HST 7:44 PM HST
Moon 9:59 PM HST (1/30) 9:25 AM HST (1/30)
Length of Visible Light 11h 56m
Length of Day
11h 09m
Waning Gibbous, 86% of the Moon is Illuminated
Jan 30
Waning Gibbous
Feb 3
Last Quarter
Feb 9
New
Feb 17
First Quarter
Feb 25
Full

Hourly Weather History & Observations

Time (HST) Temp. Dew Point Humidity Pressure Visibility Wind Dir Wind Speed Gust Speed Precip Events Conditions
12:56 AM 66.9 °F 62.1 °F 84% 30.03 in 10.0 mi Calm Calm - N/A   Clear
1:56 AM 68.0 °F 60.1 °F 76% 30.03 in 10.0 mi ENE 3.5 mph - N/A   Mostly Cloudy
2:56 AM 66.0 °F 59.0 °F 78% 30.03 in 10.0 mi ENE 4.6 mph - N/A   Clear
3:56 AM 66.9 °F 62.1 °F 84% 30.02 in 10.0 mi ENE 4.6 mph - N/A   Clear
4:56 AM 66.0 °F 61.0 °F 84% 30.02 in 10.0 mi ENE 5.8 mph - N/A   Clear
5:56 AM 66.0 °F 60.1 °F 81% 30.02 in 10.0 mi ENE 4.6 mph - N/A   Clear
6:56 AM 66.0 °F 59.0 °F 78% 30.04 in 10.0 mi East 3.5 mph - N/A   Clear
7:56 AM 64.9 °F 63.0 °F 93% 30.06 in 10.0 mi East 4.6 mph - N/A   Clear
8:56 AM 73.0 °F 62.1 °F 68% 30.08 in 10.0 mi Calm Calm - N/A   Clear
9:56 AM 75.9 °F 61.0 °F 60% 30.09 in 10.0 mi SW 4.6 mph - N/A   Clear
10:56 AM 75.9 °F 64.0 °F 67% 30.09 in 10.0 mi SW 8.1 mph - N/A   Clear
11:56 AM 77.0 °F 64.0 °F 64% 30.08 in 10.0 mi WSW 6.9 mph - N/A   Clear
12:56 PM 77.0 °F 64.9 °F 66% 30.05 in 10.0 mi WSW 6.9 mph - N/A   Clear
1:56 PM 79.0 °F 64.9 °F 62% 30.03 in 10.0 mi SW 5.8 mph - N/A   Mostly Cloudy
2:12 PM 78.8 °F 66.2 °F 65% 30.02 in 10.0 mi NNE 8.1 mph - N/A   Overcast
2:34 PM 78.8 °F 71.6 °F 78% 30.01 in 10.0 mi North 8.1 mph 16.1 mph N/A   Scattered Clouds
2:56 PM 79.0 °F 69.1 °F 72% 30.02 in 10.0 mi NNE 15.0 mph - N/A   Mostly Cloudy
3:25 PM 78.8 °F 64.4 °F 61% 30.01 in 10.0 mi SE 4.6 mph - N/A   Overcast
3:56 PM 77.0 °F 66.0 °F 69% 30.02 in 10.0 mi SSE 8.1 mph - N/A   Mostly Cloudy
4:56 PM 75.9 °F 66.0 °F 71% 30.02 in 10.0 mi SSW 8.1 mph - N/A   Overcast
5:23 PM 75.2 °F 66.2 °F 73% 30.02 in 10.0 mi South 5.8 mph - N/A   Scattered Clouds
5:56 PM 75.0 °F 68.0 °F 79% 30.03 in 10.0 mi South 4.6 mph - N/A   Mostly Cloudy
6:04 PM 75.2 °F 69.8 °F 83% 30.03 in 10.0 mi South 3.5 mph - N/A   Scattered Clouds
6:56 PM 73.9 °F 66.0 °F 76% 30.04 in 10.0 mi Calm Calm - N/A   Clear
7:56 PM 71.1 °F 66.9 °F 87% 30.06 in 10.0 mi Calm Calm - N/A   Clear
8:56 PM 69.1 °F 66.0 °F 90% 30.07 in 10.0 mi ENE 4.6 mph - N/A   Clear
9:56 PM 66.9 °F 63.0 °F 87% 30.08 in 10.0 mi Calm Calm - N/A   Clear
10:56 PM 68.0 °F 61.0 °F 78% 30.09 in 10.0 mi Calm Calm - N/A   Clear
11:56 PM 66.9 °F 61.0 °F 81% 30.08 in 10.0 mi East 4.6 mph - N/A   Clear